Year,Month,Day,Hour,Minute,Value (Times are PST for windgust in km/hr)
2020,02,23,00,05,4.80
2020,02,23,00,06,1.60
2020,02,23,00,26,1.60
2020,02,23,00,42,1.60
2020,02,23,00,43,1.60
2020,02,23,00,57,1.60
2020,02,23,01,10,1.60
2020,02,23,01,14,1.60
2020,02,23,01,15,4.80
2020,02,23,01,16,4.80
2020,02,23,01,17,1.60
2020,02,23,01,19,1.60
2020,02,23,01,23,6.40
2020,02,23,01,24,1.60
2020,02,23,01,35,1.60
2020,02,23,01,42,1.60
2020,02,23,01,43,1.60
2020,02,23,01,44,3.20
2020,02,23,01,45,3.20
2020,02,23,02,03,6.40
2020,02,23,02,04,4.80
2020,02,23,02,05,4.80
2020,02,23,02,06,3.20
2020,02,23,02,08,6.40
2020,02,23,02,09,3.20
2020,02,23,02,16,1.60
2020,02,23,02,18,4.80
2020,02,23,02,19,4.80
2020,02,23,02,20,4.80
2020,02,23,02,21,1.60
2020,02,23,02,27,4.80
2020,02,23,02,28,4.80
2020,02,23,02,29,4.80
2020,02,23,02,30,4.80
2020,02,23,02,31,4.80
2020,02,23,02,32,3.20
2020,02,23,02,33,4.80
2020,02,23,02,34,6.40
2020,02,23,02,35,4.80
2020,02,23,02,37,3.20
2020,02,23,02,39,4.80
2020,02,23,02,40,8.10
2020,02,23,02,41,6.40
2020,02,23,02,42,8.10
2020,02,23,02,43,8.10
2020,02,23,02,46,4.80
2020,02,23,02,47,4.80
2020,02,23,02,48,6.40
2020,02,23,02,52,8.10
2020,02,23,02,53,4.80
2020,02,23,02,54,1.60
2020,02,23,02,55,4.80
2020,02,23,02,59,1.60
2020,02,23,03,00,4.80
2020,02,23,03,01,14.50
2020,02,23,03,02,14.50
2020,02,23,03,03,3.20
2020,02,23,03,04,3.20
2020,02,23,03,05,1.60
2020,02,23,03,06,6.40
2020,02,23,03,08,8.10
2020,02,23,03,09,8.10
2020,02,23,03,10,3.20
2020,02,23,03,11,1.60
2020,02,23,03,12,3.20
2020,02,23,03,13,1.60
2020,02,23,03,15,4.80
2020,02,23,03,17,1.60
2020,02,23,03,18,17.70
2020,02,23,03,19,6.40
2020,02,23,03,20,4.80
2020,02,23,03,21,6.40
2020,02,23,03,22,16.10
2020,02,23,03,23,17.70
2020,02,23,03,24,8.10
2020,02,23,03,25,3.20
2020,02,23,03,28,16.10
2020,02,23,03,29,9.60
2020,02,23,03,30,8.10
2020,02,23,03,31,6.40
2020,02,23,03,32,8.10
2020,02,23,03,33,14.50
2020,02,23,03,34,4.80
2020,02,23,03,35,6.40
2020,02,23,03,36,4.80
2020,02,23,03,37,4.80
2020,02,23,03,39,11.30
2020,02,23,03,40,20.90
2020,02,23,03,41,14.50
2020,02,23,03,42,1.60
2020,02,23,03,43,4.80
2020,02,23,03,44,11.30
2020,02,23,03,45,11.30
2020,02,23,03,46,12.90
2020,02,23,03,47,8.10
2020,02,23,03,48,4.80
2020,02,23,03,49,8.10
2020,02,23,03,50,8.10
2020,02,23,03,51,6.40
2020,02,23,03,52,3.20
2020,02,23,03,53,4.80
2020,02,23,03,54,8.10
2020,02,23,03,55,6.40
2020,02,23,03,56,11.30
2020,02,23,03,57,16.10
2020,02,23,03,58,29.00
2020,02,23,03,59,20.90
2020,02,23,04,00,16.10
2020,02,23,04,01,11.30
2020,02,23,04,02,8.10
2020,02,23,04,03,6.40
2020,02,23,04,04,8.10
2020,02,23,04,05,8.10
2020,02,23,04,06,4.80
2020,02,23,04,07,6.40
2020,02,23,04,08,11.30
2020,02,23,04,09,14.50
2020,02,23,04,10,11.30
2020,02,23,04,11,4.80
2020,02,23,04,12,9.60
2020,02,23,04,13,8.10
2020,02,23,04,14,8.10
2020,02,23,04,15,12.90
2020,02,23,04,16,16.10
2020,02,23,04,17,9.60
2020,02,23,04,18,4.80
2020,02,23,04,19,9.60
2020,02,23,04,20,6.40
2020,02,23,04,21,9.60
2020,02,23,04,22,8.10
2020,02,23,04,23,8.10
2020,02,23,04,24,3.20
2020,02,23,04,26,3.20
2020,02,23,04,27,6.40
2020,02,23,04,28,6.40
2020,02,23,04,31,3.20
2020,02,23,04,32,3.20
2020,02,23,04,35,1.60
2020,02,23,04,36,4.80
2020,02,23,04,39,4.80
2020,02,23,04,40,3.20
2020,02,23,04,44,3.20
2020,02,23,04,45,3.20
2020,02,23,04,58,4.80
2020,02,23,04,59,4.80
2020,02,23,05,00,3.20
2020,02,23,05,01,6.40
2020,02,23,05,02,4.80
2020,02,23,05,03,4.80
2020,02,23,05,04,4.80
2020,02,23,05,05,4.80
2020,02,23,05,06,3.20
2020,02,23,05,07,1.60
2020,02,23,05,08,3.20
2020,02,23,05,09,1.60
2020,02,23,05,10,4.80
2020,02,23,05,13,6.40
2020,02,23,05,14,8.10
2020,02,23,05,15,9.60
2020,02,23,05,16,11.30
2020,02,23,05,17,11.30
2020,02,23,05,18,9.60
2020,02,23,05,19,11.30
2020,02,23,05,20,20.90
2020,02,23,05,21,22.50
2020,02,23,05,22,24.20
2020,02,23,05,23,14.50
2020,02,23,05,24,11.30
2020,02,23,05,25,8.10
2020,02,23,05,26,11.30
2020,02,23,05,27,9.60
2020,02,23,05,28,9.60
2020,02,23,05,29,12.90
2020,02,23,05,30,8.10
2020,02,23,05,31,19.30
2020,02,23,05,32,30.60
2020,02,23,05,33,32.20
2020,02,23,05,34,16.10
2020,02,23,05,35,19.30
2020,02,23,05,36,29.00
2020,02,23,05,37,16.10
2020,02,23,05,38,19.30
2020,02,23,05,39,9.60
2020,02,23,05,40,16.10
2020,02,23,05,41,6.40
2020,02,23,05,42,16.10
2020,02,23,05,43,9.60
2020,02,23,05,44,3.20
2020,02,23,05,45,19.30
2020,02,23,05,46,6.40
2020,02,23,05,47,6.40
2020,02,23,05,48,11.30
2020,02,23,05,49,4.80
2020,02,23,05,51,6.40
2020,02,23,05,52,4.80
2020,02,23,05,53,6.40
2020,02,23,05,54,9.60
2020,02,23,05,55,3.20
2020,02,23,05,56,3.20
2020,02,23,05,57,16.10
2020,02,23,05,58,4.80
2020,02,23,05,59,4.80
2020,02,23,06,00,4.80
2020,02,23,06,01,1.60
2020,02,23,06,02,4.80
2020,02,23,06,07,4.80
2020,02,23,06,08,4.80
2020,02,23,06,09,4.80
2020,02,23,06,10,9.60
2020,02,23,06,11,11.30
2020,02,23,06,12,11.30
2020,02,23,06,13,9.60
2020,02,23,06,14,11.30
2020,02,23,06,15,11.30
2020,02,23,06,16,11.30
2020,02,23,06,17,14.50
2020,02,23,06,18,20.90
2020,02,23,06,19,17.70
2020,02,23,06,20,12.90
2020,02,23,06,21,16.10
2020,02,23,06,22,17.70
2020,02,23,06,23,20.90
2020,02,23,06,24,20.90
2020,02,23,06,25,9.60
2020,02,23,06,26,16.10
2020,02,23,06,27,16.10
2020,02,23,06,28,17.70
2020,02,23,06,29,17.70
2020,02,23,06,30,19.30
2020,02,23,06,31,22.50
2020,02,23,06,32,20.90
2020,02,23,06,33,20.90
2020,02,23,06,34,19.30
2020,02,23,06,35,14.50
2020,02,23,06,36,12.90
2020,02,23,06,37,11.30
2020,02,23,06,38,8.10
2020,02,23,06,39,4.80
2020,02,23,06,40,11.30
2020,02,23,06,41,9.60
2020,02,23,06,42,6.40
2020,02,23,06,43,9.60
2020,02,23,06,44,9.60
2020,02,23,06,45,9.60
2020,02,23,06,46,9.60
2020,02,23,06,47,8.10
2020,02,23,06,48,4.80
2020,02,23,06,49,6.40
2020,02,23,06,50,9.60
2020,02,23,06,51,9.60
2020,02,23,06,52,6.40
2020,02,23,06,53,8.10
2020,02,23,06,55,4.80
2020,02,23,06,56,4.80
2020,02,23,06,59,6.40
2020,02,23,07,00,8.10
2020,02,23,07,01,8.10
2020,02,23,07,02,9.60
2020,02,23,07,03,11.30
2020,02,23,07,04,11.30
2020,02,23,07,05,6.40
2020,02,23,07,06,6.40
2020,02,23,07,07,8.10
2020,02,23,07,08,8.10
2020,02,23,07,09,6.40
2020,02,23,07,10,8.10
2020,02,23,07,11,9.60
2020,02,23,07,12,11.30
2020,02,23,07,13,11.30
2020,02,23,07,14,9.60
2020,02,23,07,15,3.20
2020,02,23,07,16,9.60
2020,02,23,07,17,8.10
2020,02,23,07,18,8.10
2020,02,23,07,19,8.10
2020,02,23,07,20,4.80
2020,02,23,07,25,1.60
2020,02,23,07,42,3.20
2020,02,23,07,43,3.20
2020,02,23,07,46,3.20
2020,02,23,07,47,4.80
2020,02,23,07,48,4.80
2020,02,23,07,49,4.80
2020,02,23,07,51,3.20
2020,02,23,07,52,1.60
2020,02,23,08,04,4.80
2020,02,23,08,05,4.80
2020,02,23,08,06,3.20
2020,02,23,08,08,4.80
2020,02,23,08,09,3.20
2020,02,23,08,10,1.60
2020,02,23,08,11,4.80
2020,02,23,08,12,4.80
2020,02,23,08,13,8.10
2020,02,23,08,14,6.40
2020,02,23,08,15,4.80
2020,02,23,08,16,14.50
2020,02,23,08,17,14.50
2020,02,23,08,18,14.50
2020,02,23,08,19,9.60
2020,02,23,08,20,8.10
2020,02,23,08,21,3.20
2020,02,23,08,22,4.80
2020,02,23,08,23,4.80
2020,02,23,08,24,8.10
2020,02,23,08,25,8.10
2020,02,23,08,26,11.30
2020,02,23,08,27,14.50
2020,02,23,08,28,12.90
2020,02,23,08,29,9.60
2020,02,23,08,30,11.30
2020,02,23,08,31,14.50
2020,02,23,08,32,9.60
2020,02,23,08,33,6.40
2020,02,23,08,34,6.40
2020,02,23,08,35,14.50
2020,02,23,08,36,14.50
2020,02,23,08,37,9.60
2020,02,23,08,38,11.30
2020,02,23,08,39,19.30
2020,02,23,08,40,20.90
2020,02,23,08,41,22.50
2020,02,23,08,42,16.10
2020,02,23,08,43,11.30
2020,02,23,08,44,22.50
2020,02,23,08,45,20.90
2020,02,23,08,46,9.60
2020,02,23,08,47,9.60
2020,02,23,08,48,1.60
2020,02,23,08,49,4.80
2020,02,23,08,50,22.50
2020,02,23,08,51,16.10
2020,02,23,08,52,17.70
2020,02,23,08,53,19.30
2020,02,23,08,54,19.30
2020,02,23,08,55,27.40
2020,02,23,08,56,12.90
2020,02,23,08,57,17.70
2020,02,23,08,58,9.60
2020,02,23,08,59,11.30
2020,02,23,09,00,19.30
2020,02,23,09,01,27.40
2020,02,23,09,02,24.20
2020,02,23,09,03,17.70
2020,02,23,09,04,16.10
2020,02,23,09,05,11.30
2020,02,23,09,06,17.70
2020,02,23,09,07,20.90
2020,02,23,09,08,16.10
2020,02,23,09,09,14.50
2020,02,23,09,10,11.30
2020,02,23,09,11,11.30
2020,02,23,09,12,8.10
2020,02,23,09,13,17.70
2020,02,23,09,14,8.10
2020,02,23,09,15,9.60
2020,02,23,09,16,38.60
2020,02,23,09,17,29.00
2020,02,23,09,18,19.30
2020,02,23,09,19,14.50
2020,02,23,09,20,16.10
2020,02,23,09,21,17.70
2020,02,23,09,22,9.60
2020,02,23,09,23,14.50
2020,02,23,09,24,29.00
2020,02,23,09,25,24.20
2020,02,23,09,26,17.70
2020,02,23,09,27,20.90
2020,02,23,09,28,22.50
2020,02,23,09,29,24.20
2020,02,23,09,30,16.10
2020,02,23,09,31,17.70
2020,02,23,09,32,16.10
2020,02,23,09,33,16.10
2020,02,23,09,34,16.10
2020,02,23,09,35,20.90
2020,02,23,09,36,30.60
2020,02,23,09,37,27.40
2020,02,23,09,38,14.50
2020,02,23,09,39,27.40
2020,02,23,09,40,16.10
2020,02,23,09,41,29.00
2020,02,23,09,42,30.60
2020,02,23,09,43,27.40
2020,02,23,09,44,19.30
2020,02,23,09,45,30.60
2020,02,23,09,46,40.20
2020,02,23,09,47,35.40
2020,02,23,09,48,30.60
2020,02,23,09,49,27.40
2020,02,23,09,50,17.70
2020,02,23,09,51,37.00
2020,02,23,09,52,38.60
2020,02,23,09,53,20.90
2020,02,23,09,54,29.00
2020,02,23,09,55,19.30
2020,02,23,09,56,29.00
2020,02,23,09,57,25.70
2020,02,23,09,58,17.70
2020,02,23,09,59,19.30
2020,02,23,10,00,20.90
2020,02,23,10,01,22.50
2020,02,23,10,02,19.30
2020,02,23,10,03,14.50
2020,02,23,10,04,4.80
2020,02,23,10,05,9.60
2020,02,23,10,06,9.60
2020,02,23,10,07,8.10
2020,02,23,10,08,9.60
2020,02,23,10,09,4.80
2020,02,23,10,10,17.70
2020,02,23,10,11,11.30
2020,02,23,10,12,11.30
2020,02,23,10,13,11.30
2020,02,23,10,14,9.60
2020,02,23,10,15,8.10
2020,02,23,10,16,16.10
2020,02,23,10,17,11.30
2020,02,23,10,18,14.50
2020,02,23,10,19,29.00
2020,02,23,10,20,22.50
2020,02,23,10,21,20.90
2020,02,23,10,22,17.70
2020,02,23,10,23,19.30
2020,02,23,10,24,27.40
2020,02,23,10,25,32.20
2020,02,23,10,26,24.20
2020,02,23,10,27,24.20
2020,02,23,10,28,40.20
2020,02,23,10,29,30.60
2020,02,23,10,30,27.40
2020,02,23,10,31,35.40
2020,02,23,10,32,38.60
2020,02,23,10,33,30.60
2020,02,23,10,34,25.70
2020,02,23,10,35,19.30
2020,02,23,10,36,20.90
2020,02,23,10,37,20.90
2020,02,23,10,38,22.50
2020,02,23,10,39,20.90
2020,02,23,10,40,17.70
2020,02,23,10,41,17.70
2020,02,23,10,42,22.50
2020,02,23,10,43,17.70
2020,02,23,10,44,24.20
2020,02,23,10,45,20.90
2020,02,23,10,46,29.00
2020,02,23,10,47,24.20
2020,02,23,10,48,37.00
2020,02,23,10,49,20.90
2020,02,23,10,50,25.70
2020,02,23,10,51,16.10
2020,02,23,10,52,24.20
2020,02,23,10,53,32.20
2020,02,23,10,54,35.40
2020,02,23,10,55,27.40
2020,02,23,10,56,19.30
2020,02,23,10,57,20.90
2020,02,23,10,58,17.70
2020,02,23,10,59,25.70
2020,02,23,11,00,33.80
2020,02,23,11,01,45.10
2020,02,23,11,02,37.00
2020,02,23,11,03,29.00
2020,02,23,11,04,14.50
2020,02,23,11,05,14.50
2020,02,23,11,06,11.30
2020,02,23,11,07,24.20
2020,02,23,11,08,22.50
2020,02,23,11,09,24.20
2020,02,23,11,10,24.20
2020,02,23,11,11,29.00
2020,02,23,11,12,24.20
2020,02,23,11,13,25.70
2020,02,23,11,14,30.60
2020,02,23,11,15,27.40
2020,02,23,11,16,25.70
2020,02,23,11,17,11.30
2020,02,23,11,18,19.30
2020,02,23,11,19,14.50
2020,02,23,11,20,17.70
2020,02,23,11,21,37.00
2020,02,23,11,22,14.50
2020,02,23,11,23,19.30
2020,02,23,11,24,19.30
2020,02,23,11,25,22.50
2020,02,23,11,26,12.90
2020,02,23,11,27,24.20
2020,02,23,11,28,14.50
2020,02,23,11,30,9.60
2020,02,23,11,31,14.50
2020,02,23,11,32,24.20
2020,02,23,11,33,17.70
2020,02,23,11,34,14.50
2020,02,23,11,35,14.50
2020,02,23,11,36,20.90
2020,02,23,11,37,22.50
2020,02,23,11,38,27.40
2020,02,23,11,39,11.30
2020,02,23,11,40,16.10
2020,02,23,11,41,14.50
2020,02,23,11,42,16.10
2020,02,23,11,43,20.90
2020,02,23,11,44,17.70
2020,02,23,11,45,14.50
2020,02,23,11,46,16.10
2020,02,23,11,47,17.70
2020,02,23,11,48,14.50
2020,02,23,11,49,16.10
2020,02,23,11,50,11.30
2020,02,23,11,51,6.40
2020,02,23,11,52,9.60
2020,02,23,11,53,6.40
2020,02,23,11,54,19.30
2020,02,23,11,55,19.30
2020,02,23,11,56,25.70
2020,02,23,11,57,12.90
2020,02,23,11,58,20.90
2020,02,23,11,59,17.70
2020,02,23,12,00,19.30
2020,02,23,12,01,22.50
2020,02,23,12,02,22.50
2020,02,23,12,03,27.40
2020,02,23,12,04,24.20
2020,02,23,12,05,30.60
2020,02,23,12,06,35.40
2020,02,23,12,07,29.00
2020,02,23,12,08,35.40
2020,02,23,12,09,29.00
2020,02,23,12,10,19.30
2020,02,23,12,11,30.60
2020,02,23,12,12,40.20
2020,02,23,12,13,35.40
2020,02,23,12,14,25.70
2020,02,23,12,15,29.00
2020,02,23,12,16,27.40
2020,02,23,12,17,38.60
2020,02,23,12,18,22.50
2020,02,23,12,19,37.00
2020,02,23,12,20,25.70
2020,02,23,12,21,61.20
2020,02,23,12,22,32.20
2020,02,23,12,23,19.30
2020,02,23,12,24,35.40
2020,02,23,12,25,22.50
2020,02,23,12,26,32.20
2020,02,23,12,27,32.20
2020,02,23,12,28,27.40
2020,02,23,12,29,22.50
2020,02,23,12,30,33.80
2020,02,23,12,31,32.20
2020,02,23,12,32,40.20
2020,02,23,12,33,25.70
2020,02,23,12,34,24.20
2020,02,23,12,35,24.20
2020,02,23,12,36,19.30
2020,02,23,12,37,38.60
2020,02,23,12,38,43.50
2020,02,23,12,39,19.30
2020,02,23,12,40,24.20
2020,02,23,12,41,30.60
2020,02,23,12,42,24.20
2020,02,23,12,43,35.40
2020,02,23,12,44,24.20
2020,02,23,12,45,30.60
2020,02,23,12,46,19.30
2020,02,23,12,47,20.90
2020,02,23,12,48,30.60
2020,02,23,12,49,25.70
2020,02,23,12,50,17.70
2020,02,23,12,51,24.20
2020,02,23,12,52,27.40
2020,02,23,12,53,33.80
2020,02,23,12,54,38.60
2020,02,23,12,55,27.40
2020,02,23,12,56,33.80
2020,02,23,12,57,40.20
2020,02,23,12,58,30.60
2020,02,23,12,59,33.80
2020,02,23,13,00,30.60
2020,02,23,13,01,35.40
2020,02,23,13,02,30.60
2020,02,23,13,03,37.00
2020,02,23,13,04,25.70
2020,02,23,13,05,29.00
2020,02,23,13,06,40.20
2020,02,23,13,07,35.40
2020,02,23,13,08,27.40
2020,02,23,13,09,29.00
2020,02,23,13,10,29.00
2020,02,23,13,11,24.20
2020,02,23,13,12,29.00
2020,02,23,13,13,38.60
2020,02,23,13,14,43.50
2020,02,23,13,15,25.70
2020,02,23,13,16,29.00
2020,02,23,13,17,40.20
2020,02,23,13,18,33.80
2020,02,23,13,19,20.90
2020,02,23,13,20,32.20
2020,02,23,13,21,41.80
2020,02,23,13,22,41.80
2020,02,23,13,23,46.70
2020,02,23,13,24,29.00
2020,02,23,13,25,22.50
2020,02,23,13,26,19.30
2020,02,23,13,27,20.90
2020,02,23,13,28,29.00
2020,02,23,13,29,19.30
2020,02,23,13,30,19.30
2020,02,23,13,31,30.60
2020,02,23,13,32,29.00
2020,02,23,13,33,19.30
2020,02,23,13,34,29.00
2020,02,23,13,35,37.00
2020,02,23,13,36,29.00
2020,02,23,13,37,25.70
2020,02,23,13,38,20.90
2020,02,23,13,39,29.00
2020,02,23,13,40,35.40
2020,02,23,13,41,29.00
2020,02,23,13,42,17.70
2020,02,23,13,43,22.50
2020,02,23,13,44,25.70
2020,02,23,13,45,27.40
2020,02,23,13,46,43.50
2020,02,23,13,47,49.90
2020,02,23,13,48,32.20
2020,02,23,13,49,30.60
2020,02,23,13,50,38.60
2020,02,23,13,51,11.30
2020,02,23,13,52,30.60
2020,02,23,13,53,16.10
2020,02,23,13,54,32.20
2020,02,23,13,55,38.60
2020,02,23,13,56,24.20
2020,02,23,13,57,29.00
2020,02,23,13,58,33.80
2020,02,23,13,59,43.50
2020,02,23,14,00,53.10
2020,02,23,14,01,22.50
2020,02,23,14,02,30.60
2020,02,23,14,03,20.90
2020,02,23,14,04,29.00
2020,02,23,14,05,43.50
2020,02,23,14,06,27.40
2020,02,23,14,07,24.20
2020,02,23,14,08,35.40
2020,02,23,14,09,35.40
2020,02,23,14,10,41.80
2020,02,23,14,11,30.60
2020,02,23,14,12,35.40
2020,02,23,14,13,29.00
2020,02,23,14,14,20.90
2020,02,23,14,15,27.40
2020,02,23,14,16,32.20
2020,02,23,14,17,30.60
2020,02,23,14,18,29.00
2020,02,23,14,19,19.30
2020,02,23,14,20,33.80
2020,02,23,14,21,25.70
2020,02,23,14,22,38.60
2020,02,23,14,23,25.70
2020,02,23,14,24,33.80
2020,02,23,14,25,24.20
2020,02,23,14,26,38.60
2020,02,23,14,27,33.80
2020,02,23,14,28,17.70
2020,02,23,14,29,29.00
2020,02,23,14,30,27.40
2020,02,23,14,31,35.40
2020,02,23,14,32,48.30
2020,02,23,14,33,30.60
2020,02,23,14,34,32.20
2020,02,23,14,35,37.00
2020,02,23,14,36,30.60
2020,02,23,14,37,45.10
2020,02,23,14,38,24.20
2020,02,23,14,39,25.70
2020,02,23,14,40,38.60
2020,02,23,14,41,29.00
2020,02,23,14,42,38.60
2020,02,23,14,43,29.00
2020,02,23,14,44,22.50
2020,02,23,14,45,19.30
2020,02,23,14,46,32.20
2020,02,23,14,47,30.60
2020,02,23,14,48,25.70
2020,02,23,14,49,46.70
2020,02,23,14,50,46.70
2020,02,23,14,51,53.10
2020,02,23,14,52,24.20
2020,02,23,14,53,16.10
2020,02,23,14,54,35.40
2020,02,23,14,55,27.40
2020,02,23,14,56,41.80
2020,02,23,14,57,25.70
2020,02,23,14,58,29.00
2020,02,23,14,59,33.80
2020,02,23,15,00,24.20
2020,02,23,15,01,43.50
2020,02,23,15,02,19.30
2020,02,23,15,03,24.20
2020,02,23,15,04,33.80
2020,02,23,15,05,17.70
2020,02,23,15,06,24.20
2020,02,23,15,07,25.70
2020,02,23,15,08,27.40
2020,02,23,15,09,22.50
2020,02,23,15,10,29.00
2020,02,23,15,11,43.50
2020,02,23,15,12,30.60
2020,02,23,15,13,20.90
2020,02,23,15,14,19.30
2020,02,23,15,15,19.30
2020,02,23,15,16,17.70
2020,02,23,15,17,29.00
2020,02,23,15,18,25.70
2020,02,23,15,19,29.00
2020,02,23,15,20,20.90
2020,02,23,15,21,24.20
2020,02,23,15,22,24.20
2020,02,23,15,23,25.70
2020,02,23,15,24,22.50
2020,02,23,15,25,48.30
2020,02,23,15,26,35.40
2020,02,23,15,27,29.00
2020,02,23,15,28,24.20
2020,02,23,15,29,32.20
2020,02,23,15,30,32.20
2020,02,23,15,31,48.30
2020,02,23,15,32,19.30
2020,02,23,15,33,20.90
2020,02,23,15,34,43.50
2020,02,23,15,35,27.40
2020,02,23,15,36,38.60
2020,02,23,15,37,40.20
2020,02,23,15,38,30.60
2020,02,23,15,39,38.60
2020,02,23,15,40,8.10
2020,02,23,15,41,35.40
2020,02,23,15,42,14.50
2020,02,23,15,43,32.20
2020,02,23,15,44,20.90
2020,02,23,15,45,19.30
2020,02,23,15,46,14.50
2020,02,23,15,47,38.60
2020,02,23,15,48,32.20
2020,02,23,15,49,33.80
2020,02,23,15,50,16.10
2020,02,23,15,51,35.40
2020,02,23,15,52,22.50
2020,02,23,15,53,22.50
2020,02,23,15,54,22.50
2020,02,23,15,55,22.50
2020,02,23,15,56,22.50
2020,02,23,15,57,19.30
2020,02,23,15,58,16.10
2020,02,23,15,59,22.50
2020,02,23,16,00,29.00
2020,02,23,16,01,14.50
2020,02,23,16,02,30.60
2020,02,23,16,03,32.20
2020,02,23,16,04,38.60
2020,02,23,16,05,30.60
2020,02,23,16,06,20.90
2020,02,23,16,07,19.30
2020,02,23,16,08,20.90
2020,02,23,16,09,37.00
2020,02,23,16,10,24.20
2020,02,23,16,11,24.20
2020,02,23,16,12,19.30
2020,02,23,16,13,14.50
2020,02,23,16,14,19.30
2020,02,23,16,15,16.10
2020,02,23,16,16,30.60
2020,02,23,16,17,20.90
2020,02,23,16,18,40.20
2020,02,23,16,19,24.20
2020,02,23,16,20,29.00
2020,02,23,16,21,33.80
2020,02,23,16,22,29.00
2020,02,23,16,23,37.00
2020,02,23,16,24,37.00
2020,02,23,16,25,22.50
2020,02,23,16,26,22.50
2020,02,23,16,27,25.70
2020,02,23,16,28,33.80
2020,02,23,16,29,40.20
2020,02,23,16,30,35.40
2020,02,23,16,31,49.90
2020,02,23,16,32,45.10
2020,02,23,16,33,33.80
2020,02,23,16,34,30.60
2020,02,23,16,35,24.20
2020,02,23,16,36,37.00
2020,02,23,16,37,32.20
2020,02,23,16,38,24.20
2020,02,23,16,39,37.00
2020,02,23,16,40,53.10
2020,02,23,16,41,22.50
2020,02,23,16,42,25.70
2020,02,23,16,43,17.70
2020,02,23,16,44,19.30
2020,02,23,16,45,25.70
2020,02,23,16,46,24.20
2020,02,23,16,47,37.00
2020,02,23,16,48,22.50
2020,02,23,16,49,43.50
2020,02,23,16,50,27.40
2020,02,23,16,51,19.30
2020,02,23,16,52,24.20
2020,02,23,16,53,30.60
2020,02,23,16,54,38.60
2020,02,23,16,55,37.00
2020,02,23,16,56,29.00
2020,02,23,16,57,27.40
2020,02,23,16,58,30.60
2020,02,23,16,59,38.60
2020,02,23,17,00,45.10
2020,02,23,17,01,30.60
2020,02,23,17,02,30.60
2020,02,23,17,03,30.60
2020,02,23,17,04,41.80
2020,02,23,17,05,29.00
2020,02,23,17,06,40.20
2020,02,23,17,07,48.30
2020,02,23,17,08,30.60
2020,02,23,17,09,38.60
2020,02,23,17,10,22.50
2020,02,23,17,11,19.30
2020,02,23,17,12,40.20
2020,02,23,17,13,38.60
2020,02,23,17,14,37.00
2020,02,23,17,15,38.60
2020,02,23,17,16,24.20
2020,02,23,17,17,19.30
2020,02,23,17,18,20.90
2020,02,23,17,19,27.40
2020,02,23,17,20,22.50
2020,02,23,17,21,35.40
2020,02,23,17,22,35.40
2020,02,23,17,23,25.70
2020,02,23,17,24,49.90
2020,02,23,17,25,16.10
2020,02,23,17,26,30.60
2020,02,23,17,27,38.60
2020,02,23,17,28,19.30
2020,02,23,17,29,53.10
2020,02,23,17,30,37.00
2020,02,23,17,31,51.50
2020,02,23,17,32,24.20
2020,02,23,17,33,32.20
2020,02,23,17,34,20.90
2020,02,23,17,35,25.70
2020,02,23,17,36,29.00
2020,02,23,17,37,22.50
2020,02,23,17,38,43.50
2020,02,23,17,39,45.10
2020,02,23,17,40,27.40
2020,02,23,17,41,35.40
2020,02,23,17,42,49.90
2020,02,23,17,43,25.70
2020,02,23,17,44,30.60
2020,02,23,17,45,20.90
2020,02,23,17,46,35.40
2020,02,23,17,47,19.30
2020,02,23,17,48,41.80
2020,02,23,17,49,37.00
2020,02,23,17,50,45.10
2020,02,23,17,51,37.00
2020,02,23,17,52,30.60
2020,02,23,17,53,48.30
2020,02,23,17,54,45.10
2020,02,23,17,55,40.20
2020,02,23,17,56,32.20
2020,02,23,17,57,35.40
2020,02,23,17,58,20.90
2020,02,23,17,59,32.20
2020,02,23,18,00,46.70
2020,02,23,18,01,29.00
2020,02,23,18,02,20.90
2020,02,23,18,03,17.70
2020,02,23,18,04,27.40
2020,02,23,18,05,30.60
2020,02,23,18,06,29.00
2020,02,23,18,07,37.00
2020,02,23,18,08,48.30
2020,02,23,18,09,29.00
2020,02,23,18,10,19.30
2020,02,23,18,11,16.10
2020,02,23,18,12,22.50
2020,02,23,18,13,46.70
2020,02,23,18,14,17.70
2020,02,23,18,15,27.40
2020,02,23,18,16,20.90
2020,02,23,18,17,16.10
2020,02,23,18,18,17.70
2020,02,23,18,19,14.50
2020,02,23,18,20,19.30
2020,02,23,18,21,20.90
2020,02,23,18,22,19.30
2020,02,23,18,23,22.50
2020,02,23,18,24,24.20
2020,02,23,18,25,40.20
2020,02,23,18,26,33.80
2020,02,23,18,27,20.90
2020,02,23,18,28,14.50
2020,02,23,18,29,40.20
2020,02,23,18,30,30.60
2020,02,23,18,31,35.40
2020,02,23,18,32,20.90
2020,02,23,18,33,27.40
2020,02,23,18,34,25.70
2020,02,23,18,35,16.10
2020,02,23,18,36,8.10
2020,02,23,18,37,19.30
2020,02,23,18,38,11.30
2020,02,23,18,39,27.40
2020,02,23,18,40,17.70
2020,02,23,18,41,11.30
2020,02,23,18,42,20.90
2020,02,23,18,43,30.60
2020,02,23,18,44,32.20
2020,02,23,18,45,25.70
2020,02,23,18,46,14.50
2020,02,23,18,47,30.60
2020,02,23,18,48,25.70
2020,02,23,18,49,25.70
2020,02,23,18,50,16.10
2020,02,23,18,51,16.10
2020,02,23,18,52,20.90
2020,02,23,18,53,30.60
2020,02,23,18,54,17.70
2020,02,23,18,55,24.20
2020,02,23,18,56,19.30
2020,02,23,18,57,16.10
2020,02,23,18,58,24.20
2020,02,23,18,59,32.20
2020,02,23,19,00,27.40
2020,02,23,19,01,17.70
2020,02,23,19,02,14.50
2020,02,23,19,03,25.70
2020,02,23,19,04,30.60
2020,02,23,19,05,20.90
2020,02,23,19,06,17.70
2020,02,23,19,07,22.50
2020,02,23,19,08,20.90
2020,02,23,19,09,14.50
2020,02,23,19,10,9.60
2020,02,23,19,11,17.70
2020,02,23,19,12,16.10
2020,02,23,19,13,37.00
2020,02,23,19,14,16.10
2020,02,23,19,15,8.10
2020,02,23,19,16,14.50
2020,02,23,19,17,24.20
2020,02,23,19,18,30.60
2020,02,23,19,19,24.20
2020,02,23,19,20,11.30
2020,02,23,19,21,24.20
2020,02,23,19,22,9.60
2020,02,23,19,23,8.10
2020,02,23,19,24,8.10
2020,02,23,19,25,16.10
2020,02,23,19,26,8.10
2020,02,23,19,27,8.10
2020,02,23,19,28,16.10
2020,02,23,19,29,11.30
2020,02,23,19,30,17.70
2020,02,23,19,31,16.10
2020,02,23,19,32,14.50
2020,02,23,19,33,20.90
2020,02,23,19,34,27.40
2020,02,23,19,35,16.10
2020,02,23,19,36,19.30
2020,02,23,19,37,19.30
2020,02,23,19,38,19.30
2020,02,23,19,39,14.50
2020,02,23,19,40,30.60
2020,02,23,19,41,24.20
2020,02,23,19,42,24.20
2020,02,23,19,43,14.50
2020,02,23,19,44,29.00
2020,02,23,19,45,30.60
2020,02,23,19,46,19.30
2020,02,23,19,47,12.90
2020,02,23,19,48,22.50
2020,02,23,19,49,17.70
2020,02,23,19,50,19.30
2020,02,23,19,51,16.10
2020,02,23,19,52,19.30
2020,02,23,19,53,11.30
2020,02,23,19,54,16.10
2020,02,23,19,55,8.10
2020,02,23,19,56,6.40
2020,02,23,19,57,17.70
2020,02,23,19,58,20.90
2020,02,23,19,59,16.10
2020,02,23,20,00,19.30
2020,02,23,20,01,12.90
2020,02,23,20,02,19.30
2020,02,23,20,03,12.90
2020,02,23,20,04,24.20
2020,02,23,20,05,19.30
2020,02,23,20,06,19.30
2020,02,23,20,07,32.20
2020,02,23,20,08,20.90
2020,02,23,20,09,8.10
2020,02,23,20,10,25.70
2020,02,23,20,11,14.50
2020,02,23,20,12,11.30
2020,02,23,20,13,9.60
2020,02,23,20,14,8.10
2020,02,23,20,15,20.90
2020,02,23,20,16,22.50
2020,02,23,20,17,16.10
2020,02,23,20,18,30.60
2020,02,23,20,19,22.50
2020,02,23,20,20,9.60
2020,02,23,20,21,22.50
2020,02,23,20,22,20.90
2020,02,23,20,23,24.20
2020,02,23,20,24,9.60
2020,02,23,20,25,19.30
2020,02,23,20,26,17.70
2020,02,23,20,27,8.10
2020,02,23,20,28,17.70
2020,02,23,20,29,19.30
2020,02,23,20,30,16.10
2020,02,23,20,31,14.50
2020,02,23,20,32,17.70
2020,02,23,20,33,19.30
2020,02,23,20,34,14.50
2020,02,23,20,35,11.30
2020,02,23,20,36,12.90
2020,02,23,20,37,9.60
2020,02,23,20,38,3.20
2020,02,23,20,39,8.10
2020,02,23,20,40,11.30
2020,02,23,20,41,9.60
2020,02,23,20,42,6.40
2020,02,23,20,43,6.40
2020,02,23,20,44,19.30
2020,02,23,20,45,24.20
2020,02,23,20,46,16.10
2020,02,23,20,47,19.30
2020,02,23,20,48,19.30
2020,02,23,20,49,17.70
2020,02,23,20,50,22.50
2020,02,23,20,51,9.60
2020,02,23,20,52,16.10